Home   Weather   Bozeman   Past weeks

Flag for USA Past Weather in Bozeman, Montana, USA — Yesterday and Last 2 Weeks

Now
13 °F

Passing clouds.


Feels Like: 5 °F
Forecast: 11 / 28 °F
Wind: 5 mph from Southeast

Location: Gallatin Field

Current Time: Jan 22, 2017 at 5:25:37 am

Latest Report: Jan 22, 2017 at 4:56 am


Visibility: 10 mi

Pressure: 30.01 "Hg (24.78 "Hg at 1469m altitude)

Humidity: 88%

Dew Point: 10 °F

Location of BozemanLocation

Past Weather in Bozeman — Graph

°F

Bozeman Temperature Yesterday

Maximum temperature yesterday: 26 °F (at 1:56 pm)
Minimum temperature yesterday: 3 °F (at 6:56 am)
Average temperature yesterday: 16 °F

High & Low Weather Summary for the Past Weeks

 TemperatureHumidityPressure
High43 °F (Jan 9, 11:27 am)96% (Jan 20, 8:56 am)30.80 "Hg (Jan 20, 8:56 am)
Low-18 °F (Jan 14, 4:31 am)49% (Jan 10, 6:56 am)29.45 "Hg (Jan 20, 2:56 pm)
Average12 °F78%30.07 "Hg
* Reported Jan 7 3:56 am — Jan 22 3:56 am, Bozeman, Weather by CustomWeather, © 2017

Note: Actual official high and low records may vary slightly from our data, if they occured in-between our weather recording intervals... More about our weather records

Advertising

Bozeman Weather History for the Previous 24 Hours

Scroll right to see more
 ConditionsComfort  
Time TempWeatherWind HumidityBarometerVisibility
3:56 am
Sun, Jan 22
12 °FClear.3 mph88%30.00 "Hg9 mi
2:56 am17 °FOvercast.6 mph83%29.96 "Hg8 mi
1:56 am17 °FPassing clouds.5 mph88%29.93 "Hg8 mi
12:56 am17 °FOvercast.No wind83%29.93 "Hg10 mi
11:56 pm
Sat, Jan 21
18 °FPassing clouds.No wind80%29.93 "Hg9 mi
10:56 pm20 °FOvercast.6 mph85%29.92 "Hg10 mi
9:56 pm19 °FOvercast.No wind85%29.90 "Hg10 mi
8:56 pm22 °FMostly cloudy.3 mph78%29.89 "Hg10 mi
7:56 pm22 °FOvercast.No wind78%29.86 "Hg10 mi
6:56 pm21 °FOvercast.No wind78%29.85 "Hg10 mi
5:56 pm21 °FOvercast.No wind74%29.80 "Hg10 mi
4:56 pm22 °FPassing clouds.5 mph75%29.76 "Hg10 mi
3:56 pm26 °FPartly sunny.No wind63%29.72 "Hg10 mi
2:56 pm25 °FOvercast.5 mph75%29.69 "Hg10 mi
1:56 pm26 °FOvercast.No wind63%29.65 "Hg10 mi
12:56 pm23 °FPartly sunny.No wind65%29.62 "Hg10 mi
11:56 am18 °FOvercast.No wind77%29.62 "Hg10 mi
10:56 am13 °FMostly cloudy.6 mph81%29.65 "Hg10 mi
9:56 am12 °FPassing clouds.No wind80%29.63 "Hg10 mi
8:56 am8 °FSunny.5 mph87%29.60 "Hg10 mi
7:56 am7 °FClear.7 mph83%29.58 "Hg10 mi
6:56 am3 °FClear.6 mph87%29.54 "Hg10 mi
5:56 am8 °FClear.7 mph83%29.50 "Hg10 mi
Weather by CustomWeather, © 2017

See weather overviewHow to use our weather pages